Погода Удское

Погода Удское : погода сейчас, прогноз погоды и архив. Всё, что Вы хотите узнать о погоде Удское!

Поиск расширенной информации на нашем сайте:

Другие новости

Новости СМИ2

Главная страница сайта

Новости сайта

03.07.2017

Напоминаем, что на нашем специализированном сайте Метеоцентр.Азия вы можете получить высокодетализированные автоматические прогнозы погоды по пунктам России, СНГ и мира в авиационном формате (включающие направление и скорость ветра, видимость, явления погоды, количество и форму облачности, нижнюю и верхнюю границу облачности).


Погода Удское - сегодня

Время (UTC), дата Ветер
(°,м/с) 
Видим.   Явления Облачность Т
(°С)
Тd
(°С)
f(%) Тe
(°С)
Pmin
(гПа)
dP
(гПа)
Po
(мм)
O2
(г/м3)
Тmin Tmax R s Состояние
почвы
03 19.02.18 250 (З) 20000 м    3/0 верхняя 
[Ci fib]
-15 -21 60 -15  1015.4  -1.4  755  324           
06 19.02.18 тихо ()   20000 м    3/0 верхняя 
[Ci fib]
-12 -22.9 40 -12  1013.7  -1.5  754  319           
12 19.02.18 120 (ЮВ) 70  0100 м    1/0 600 м верхняя 
[Ci fib]
-29.5   1015.5  0.6  755             
15 19.02.18 тихо ()   20000 м    3/0 верхняя 
[Ci fib]
-30.4 -32.8 79 -30  1015.7  755  344           
18 19.02.18 тихо ()   20000 м    3/0 верхняя 
[Ci fib]
-31.6 -33.9 80 -32  1015.6  -0.1  755  346           
00 20.02.18 230 (ЮЗ) 20000 м    3/0 верхняя 
[Ci fib]
-23.9 -26.4 80 -24  1014.1  0.3  754  335           
03 20.02.18 230 (ЮЗ) 20000 м    4/0 средняя, верхняя 
[Ac cast|Ci fib]
-19.4 -25.2 60 -22  1013.1  -0.8  754  329           
06 20.02.18 230 (ЮЗ) 20000 м    3/0 верхняя 
[Cu hum|Ci fib]
-14.4 -23.7 45 -17  1011.9  -1  753  322           
12 20.02.18 250 (З) 20000 м    ясно 
-28.6 -31.7 75 -29  1013.9  0.7  754  341           
15 20.02.18 тихо ()   20000 м    ясно 
-32.4 -34.8 79 -32  1024  0.1  754  347           
18 20.02.18 тихо ()   20000 м    ясно 
-33.1 -35.4 80 -33  1014.3  0.1  754  348           
00 21.02.18 тихо ()   20000 м    1/0 верхняя 
[Ci fib]
-28.6 -31.2 78 -29  1014.9  0.4  755  342           
03 21.02.18 180 (Ю) 20000 м    3/0 верхняя 
[Ci]
-20.1 -26.8 55 -20  1014.2  -0.6  754  330           
06 21.02.18 200 (Ю) 20000 м    3/0 верхняя 
[Ci fib]
-15.1 -25.7 40 -15  1012.9  -1  754  323           
12 21.02.18 тихо ()   20000 м    3/0 верхняя 
[Ci fib]
-29.4 -32.4 75 -29  1015.6  1.4  755  343           
15 21.02.18 тихо ()   20000 м    3/0 верхняя 
[Ci fib]
-32.3 -34.6 80 -32  1017.1  1.5  756  348           
18 21.02.18 тихо ()   20000 м    3/0 верхняя 
[Ci fib]
-34.7 -37.1 79 -35  1016.4  -0.9  756  351           
00 22.02.18 тихо ()   20000 м    3/0 верхняя 
[Ci fib]
-29.9 -32.4 79 -30  1019.4  1.1  758  345           
03 22.02.18 200 (Ю) 20000 м    4/0 верхняя 
[Ci]
-19.1 -25.9 55 -19  1018  -1.1  757  330           
06 22.02.18 290 (З) 20000 м    6/0 средняя, верхняя 
[Ac lent|Cs]
-16.2 -26.7 40 -16  1016.9  -0.9  756  326           
09 22.02.18 360 (С) 20000 м    6/0 средняя, верхняя 
[Ac lent|Cs]
-24.3 -30.8 55 -25  1018.4  1.2  757  337    -15.6       
12 22.02.18 тихо ()   20000 м    ясно 
-30.7 -33.6 76 -31  1010.5  1.9  759  346           
15 22.02.18 тихо ()   20000 м    ясно 
-33.5 -36.6 74 -34  1011.7  760  351           
18 22.02.18 тихо ()   20000 м    ясно 
-34.5 -36.8 79 -35  1022.2  0.5  760  353           
00 23.02.18 тихо ()   20000 м    ясно 
-28.6 -31 80 -29  1025.7  0.8  763  345           
Время (UTC), дата Ветер
(°,м/с) 
Видим.   Явления Облачность Т
(°С)
Тd
(°С)
f(%) Тe
(°С)
Pmin
(гПа)
dP
(гПа)
Po
(мм)
O2
(г/м3)
Тmin Tmax R s Состояние
почвы

Для получения пояснительной информации подведите курсор к названию столбца.

ПОГОДА Удское - архив

Всё, что Вы хотите узнать о погоде Удское - удобно и подробно!

Выберите нужную дату (начиная с 1 января 2015* года) и нажмите кнопку "Найти".
Будут отображены архивные сводки погоды по пункту Удское, начиная с указанной даты.


Отображать данные в формате CSV (для использования в таблицах Excel)


Внимание! Наш архив погоды предназначен исключительно для личного некоммерческого использования в познавательных целях. Если Вам необходимы официальные справки о состоянии погоды (для производственных, юридических, коммерческих и т.п. целей), обращайтесь в органы Росгидромета.

*Примечание: данная дата относится к архиву по метеостанциям СССР (Россия, СНГ, Балтия).
Архив по метеостанциям Зарубежной Европы и Азии (кроме Китая) хранится 10 дней, по другим регионам земного шара (Китай, Африка, Америка, Австралия, Океания) - 1 день.

Удское - район местоположения метеостанции


Название, широта, долгота, высота метеостанции:
Удское 54.53°ш. 134.42°д. 57 м над ур. моря [Российская Федерация]

Дополнительная информация

В oтличие oт бoльшинства пoгoдных сайтoв мы публикуем пoдрoбную метеoинфoрмацию в детальнoм прoфессиoнальнoм фoрмате.

Характеристики температуры и влажнoсти вoздуха измеряются на высoте 2 м в тени вдали oт зданий и деревьев.
Скoрoсть ветра измеряется на высoте 10 м (на урoвне рoста челoвека скoрoсть ветра ниже в 1.5-2 раза). Если метеoстанция нахoдится в гoрoде или в лесу, тo скoрoсть ветра занижена на 2-4 м/с пo сравнению с oткрытым местoм. Скoрoсть ветра над акватoриями крупных рек и oзёр, а также на вершинах хoлмoв на 2-5 м/с выше, чем в oбычных услoвиях.
Атмoсфернoе давление в разных тoчках местнoсти мoжет значительнo oтличаться oт давления на метеoстанции, в зависимoсти oт услoвий рельефа (при пoдъёме на 10 м давление пoнижается примернo на 1 мм рт.ст.).